User: anonymous   Login
Location: Newark
(48.4472°N, 1.4892°E)
Time: 09:31:06
(UTC+00:00)
Language:

Explorer 7 - Orbit

View from above orbital plane
View from above orbital plane
View from above satellite
View from above satellite

Ground track
Ground track

The orbit data is extracted from the following two-line orbital elements,

1    22U 59009A   19323.68997803 +.00000081 +00000-0 +29315-4 0  9998
2    22 050.2854 010.8531 0140079 173.6287 186.6483 14.94991242438841
Epoch (UTC): 19 November 2019 16:33:34
Eccentricity: 0.0140079
inclination: 50.2854°
perigee height: 485 km
apogee height: 680 km
right ascension of ascending node: 10.8531°
argument of perigee: 173.6287°
revolutions per day: 14.94991242
mean anomaly at epoch: 186.6483°
orbit number at epoch: 43884

The dashed part of the orbit path shows where the satellite is in the earth's shadow,  

DLR